This demonstration page uses our WeatherBlox Daily Observations layout. Learn more.

Left ArrowRight Arrow

Hourly Observations for March 5, 2020

Temp ( °F °C ) Dew Point ( °F °C ) Humidity (%) Winds ( mph kmh ) Pressure ( in mb ) Visibility ( mi km ) Precip ( " mm )
12:51 am 00:51 Clear 51 10.6 32 0 48 48 ESE 10 17 30.11 1020 10 16 0.00 0.00
1:51 am 01:51 Clear 50 10 33 0.6 52 52 ESE 8 13 30.12 1020 10 16 0.00 0.00
2:51 am 02:51 Clear 50 10 34 1.1 54 54 E 7 11 30.13 1020 10 16 0.00 0.00
3:51 am 03:51 Clear 46 7.8 35 1.7 66 66 ESE 7 11 30.14 1021 10 16 0.00 0.00
4:51 am 04:51 Clear 48 8.9 34 1.1 58 58 ESE 8 13 30.16 1022 10 16 0.00 0.00
5:51 am 05:51 Clear 47 8.3 33 0.6 59 59 SE 10 17 30.19 1022 10 16 0.00 0.00
6:51 am 06:51 Sunny 46 7.8 32 0 58 58 ESE 10 17 30.22 1023 10 16 0.00 0.00
7:51 am 07:51 Sunny 50 10 33 0.6 52 52 SE 12 19 30.25 1025 10 16 0.00 0.00
8:51 am 08:51 Sunny 56 13.3 34 1.1 44 44 SE 12 19 30.27 1025 10 16 0.00 0.00
9:51 am 09:51 undefined N/A N/A N/A undefined N/A N/A N/A 0.00 0.00
10:51 am 10:51 undefined N/A N/A N/A undefined N/A N/A N/A 0.00 0.00
11:51 am 11:51 Sunny 66 18.9 40 4.4 39 39 ESE 10 17 30.23 1024 10 16 0.00 0.00
12:51 pm 12:51 Sunny 68 20 39 3.9 35 35 SSE 12 19 30.19 1022 10 16 0.00 0.00
1:51 pm 13:51 Sunny 72 22.2 39 3.9 30 30 SE 12 19 30.14 1021 10 16 0.00 0.00
2:51 pm 14:51 Sunny 74 23.3 37 2.8 26 26 SE 12 19 30.10 1019 10 16 0.00 0.00
3:51 pm 15:51 Sunny 75 23.9 32 0 21 21 SE 15 24 30.08 1019 10 16 0.00 0.00
4:51 pm 16:51 Sunny 74 23.3 29 -1.7 19 19 SSE 21 33 30.07 1018 10 16 0.00 0.00
5:51 pm 17:51 Sunny 71 21.7 28 -2.2 20 20 SE 13 20 30.08 1019 10 16 0.00 0.00
6:51 pm 18:51 Clear 67 19.4 29 -1.7 24 24 ESE 12 19 30.11 1020 10 16 0.00 0.00
7:51 pm 19:51 Clear 60 15.6 30 -1.1 32 32 E 8 13 30.15 1021 10 16 0.00 0.00
8:51 pm 20:51 Clear 62 16.7 29 -1.7 29 29 ESE 14 22 30.15 1021 10 16 0.00 0.00
9:51 pm 21:51 Clear 61 16.1 34 1.1 36 36 E 15 24 30.16 1021 10 16 0.00 0.00
10:51 pm 22:51 Clear 61 16.1 33 0.6 35 35 ESE 12 19 30.17 1022 10 16 0.00 0.00
11:51 pm 23:51 Clear 58 14.4 33 0.6 39 39 ESE 10 17 30.17 1022 10 16 0.00 0.00

Powered by AerisWeather